HK6LRQ-24 Weather Reports


Display with metric or nautical units.
time (UTC)temp
F
wind
direction
speed
MPH
gust
MPH
rain 1hr
in
rain 24hr
in
rain mn
in
humidity
%
barometer
mb
20260507073606 62 53 3.0 5.0 0.00 0.00 0.00 80 1015.0
20260507070605 62 53 3.0 5.0 0.00 0.00 0.00 80 1015.0
20260507063604 62 53 3.0 5.0 0.00 0.00 0.00 80 1015.0
20260507060603 62 53 3.0 5.0 0.00 0.00 0.00 80 1015.0
20260507053602 62 53 3.0 5.0 0.00 0.00 0.00 80 1015.0
20260507050601 62 53 3.0 5.0 0.00 0.00 0.00 80 1016.0
20260507043600 63 53 3.0 5.0 0.00 0.00 0.00 80 1016.0
20260507040557 63 53 3.0 5.0 0.00 0.00 0.00 80 1016.0
20260507033556 63 53 3.0 5.0 0.00 0.00 0.00 80 1016.0
20260507030554 64 53 3.0 5.0 0.00 0.00 0.00 80 1016.0
20260507023553 64 53 3.0 5.0 0.00 0.00 0.00 80 1015.0
20260507020551 65 53 3.0 5.0 0.00 0.00 0.00 80 1015.0
20260507013550 65 53 3.0 5.0 0.00 0.00 0.00 80 1014.0
20260507010549 66 53 3.0 5.0 0.00 0.00 0.00 80 1014.0
20260507003548 66 53 3.0 5.0 0.00 0.00 0.00 81 1013.0
20260507000547 67 53 3.0 5.0 0.00 0.00 0.00 83 1013.0
20260506233546 73 284 3.0 1.0 0.00 0.00 0.00 80 1012.0
20260506230545 74 284 3.0 1.0 0.00 0.00 0.00 80 1011.0
20260506223544 74 284 3.0 1.0 0.00 0.00 0.00 80 1010.0
20260506220543 75 284 3.0 1.0 0.00 0.00 0.00 80 1010.0
20260506213542 75 284 3.0 1.0 0.00 0.00 0.00 80 1009.0
20260506210541 76 284 3.0 1.0 0.00 0.00 0.00 80 1009.0
20260506203540 76 284 3.0 1.0 0.00 0.00 0.00 80 1009.0
20260506200539 76 284 3.0 1.0 0.00 0.00 0.00 80 1010.0
20260506193538 76 284 3.0 1.0 0.00 0.00 0.00 79 1009.0
20260506190537 76 295 3.0 2.0 0.00 0.00 0.00 83 1010.0
20260506183536 76 210 8.0 0.0 0.00 0.00 0.00 81 1010.0
20260506180535 77 210 8.0 0.0 0.00 0.00 0.00 81 1011.0
20260506173534 76 200 4.0 0.0 0.00 0.00 0.00 83 1011.0
20260506170533 76 200 4.0 0.0 0.00 0.00 0.00 83 1013.0
20260506163532 77 200 4.0 0.0 0.00 0.00 0.00 83 1013.0
20260506160531 77 200 4.0 0.0 0.00 0.00 0.00 83 1014.0
20260506153530 72 0 1.0 0.0 0.00 0.00 0.00 94 1014.0
20260506150529 72 0 1.0 0.0 0.00 0.00 0.00 94 1016.0
20260506143528 73 0 2.0 0.0 0.00 0.00 0.00 94 1016.0
20260506140527 73 0 2.0 0.0 0.00 0.00 0.00 94 1017.0
20260506133526 64 30 3.0 0.0 0.00 0.00 0.00 92 1016.0
20260506130525 65 30 3.0 0.0 0.00 0.00 0.00 92 1016.0
20260506123524 65 30 3.0 0.0 0.00 0.00 0.00 92 1016.0
20260506120522 66 30 3.0 0.0 0.00 0.00 0.00 93 1016.0
20260506113521 66 30 3.0 0.0 0.00 0.00 0.00 92 1016.0
20260506110521 66 30 3.0 0.0 0.00 0.00 0.00 92 1016.0
20260506103519 66 30 3.0 0.0 0.00 0.00 0.00 92 1016.0
20260506100518 66 30 3.0 0.0 0.00 0.00 0.00 92 1016.0
20260506093517 66 30 3.0 0.0 0.00 0.00 0.00 92 1015.0
20260506090516 66 30 3.0 0.0 0.00 0.00 0.00 92 1015.0
20260506083515 66 30 3.0 0.0 0.00 0.00 0.00 92 1015.0
20260506080514 66 30 3.0 0.0 0.00 0.00 0.00 92 1015.0